Time,TemperatureF,DewpointF,PressureIn,WindDirection,WindDirectionDegrees,WindSpeedMPH,WindSpeedGustMPH,Humidity,HourlyPrecipIn,Conditions,Clouds,dailyrainin,SoftwareType,DateUTC
2013-04-02 00:00:00,23.3,10.3,30.19,WNW,287,5.0,10.0,57,0.00,,CLR,0.00,VWS V14.01,2013-04-02 05:00:00,
2013-04-02 00:05:00,23.3,10.7,30.19,WNW,294,0.0,10.0,58,0.00,,CLR,0.00,VWS V14.01,2013-04-02 05:05:00,
2013-04-02 00:10:00,23.2,10.6,30.19,WNW,291,2.0,10.0,58,0.00,,CLR,0.00,VWS V14.01,2013-04-02 05:10:00,
2013-04-02 00:15:00,23.0,10.4,30.19,WNW,284,9.0,9.0,58,0.00,,CLR,0.00,VWS V14.01,2013-04-02 05:15:00,
2013-04-02 00:20:00,22.9,10.3,30.19,West,276,3.0,14.0,58,0.00,,CLR,0.00,VWS V14.01,2013-04-02 05:20:00,
2013-04-02 00:25:00,22.7,10.2,30.19,West,281,5.0,14.0,58,0.00,,CLR,0.00,VWS V14.01,2013-04-02 05:25:00,
2013-04-02 00:30:00,22.5,10.4,30.19,WNW,285,7.0,7.0,59,0.00,,CLR,0.00,VWS V14.01,2013-04-02 05:30:00,
2013-04-02 00:35:00,22.5,10.4,30.19,WNW,286,2.0,10.0,59,0.00,,CLR,0.00,VWS V14.01,2013-04-02 05:35:00,
2013-04-02 00:40:00,22.4,10.3,30.19,West,281,6.0,10.0,59,0.00,,CLR,0.00,VWS V14.01,2013-04-02 05:40:00,
2013-04-02 00:45:00,22.1,10.0,30.19,West,281,7.0,7.0,59,0.00,,CLR,0.00,VWS V14.01,2013-04-02 05:45:00,
2013-04-02 00:50:00,21.9,10.2,30.19,West,281,9.0,9.0,60,0.00,,CLR,0.00,VWS V14.01,2013-04-02 05:50:00,
2013-04-02 00:56:00,21.9,10.2,30.19,WNW,285,6.0,10.0,60,0.00,,CLR,0.00,VWS V14.01,2013-04-02 05:56:00,
2013-04-02 01:00:00,23.3,10.3,30.19,WNW,287,7.0,10.0,57,0.00,,,0.00,VWS V15.00,2013-04-02 06:00:00,
2013-04-02 01:01:00,21.8,10.1,30.19,WNW,284,7.0,11.0,60,0.00,,CLR,0.00,VWS V14.01,2013-04-02 06:01:00,
2013-04-02 01:06:00,21.6,9.9,30.19,WNW,288,9.0,11.0,60,0.00,,CLR,0.00,VWS V14.01,2013-04-02 06:06:00,
2013-04-02 01:11:00,21.4,10.1,30.19,WNW,286,6.0,11.0,61,0.00,,CLR,0.00,VWS V14.01,2013-04-02 06:11:00,
2013-04-02 01:15:00,23.0,10.4,30.19,West,279,6.0,12.0,58,0.00,,,0.00,VWS V15.00,2013-04-02 06:15:00,
2013-04-02 01:16:00,21.3,10.3,30.19,WNW,291,3.0,8.0,62,0.00,,CLR,0.00,VWS V14.01,2013-04-02 06:16:00,
2013-04-02 01:21:00,21.1,10.1,30.19,WNW,291,1.0,8.0,62,0.00,,CLR,0.00,VWS V14.01,2013-04-02 06:21:00,
2013-04-02 01:27:00,21.0,9.7,30.19,WNW,291,2.0,9.0,61,0.00,,CLR,0.00,VWS V14.01,2013-04-02 06:27:00,
2013-04-02 01:30:00,22.5,10.0,30.19,WNW,288,0.0,14.0,58,0.00,,,0.00,VWS V15.00,2013-04-02 06:30:00,
2013-04-02 01:32:00,21.0,10.0,30.19,WNW,291,4.0,6.0,62,0.00,,CLR,0.00,VWS V14.01,2013-04-02 06:32:00,
2013-04-02 01:37:00,20.6,9.7,30.19,WNW,291,0.0,6.0,62,0.00,,CLR,0.00,VWS V14.01,2013-04-02 06:37:00,
2013-04-02 01:42:00,20.5,9.9,30.19,WNW,291,0.0,6.0,63,0.00,,CLR,0.00,VWS V14.01,2013-04-02 06:42:00,
2013-04-02 01:45:00,22.1,9.6,30.19,West,281,4.0,10.0,58,0.00,,,0.00,VWS V15.00,2013-04-02 06:45:00,
2013-04-02 01:47:00,20.3,9.7,30.19,WNW,291,0.0,3.0,63,0.00,,CLR,0.00,VWS V14.01,2013-04-02 06:47:00,
2013-04-02 01:52:00,20.2,10.0,30.19,WNW,291,0.0,5.0,64,0.00,,CLR,0.00,VWS V14.01,2013-04-02 06:52:00,
2013-04-02 01:57:00,19.9,9.7,30.19,WNW,291,0.0,5.0,64,0.00,,CLR,0.00,VWS V14.01,2013-04-02 06:57:00,
2013-04-02 02:00:00,21.8,10.1,30.19,WNW,284,11.0,11.0,60,0.00,,,0.00,VWS V15.00,2013-04-02 07:00:00,
2013-04-02 02:02:00,19.7,9.9,30.19,WNW,291,0.0,0.0,65,0.00,,CLR,0.00,VWS V14.01,2013-04-02 07:02:00,
2013-04-02 02:08:00,19.4,9.9,30.19,WNW,291,0.0,0.0,66,0.00,,CLR,0.00,VWS V14.01,2013-04-02 07:08:00,
2013-04-02 02:13:00,19.2,9.7,30.19,WNW,291,0.0,0.0,66,0.00,,CLR,0.00,VWS V14.01,2013-04-02 07:13:00,
2013-04-02 02:15:00,21.3,10.0,30.19,WNW,290,8.0,11.0,61,0.00,,,0.00,VWS V15.00,2013-04-02 07:15:00,
2013-04-02 02:18:00,18.9,9.4,30.20,WNW,291,0.0,0.0,66,0.00,,CLR,0.00,VWS V14.01,2013-04-02 07:18:00,
2013-04-02 02:23:00,18.8,9.3,30.20,WNW,291,0.0,0.0,66,0.00,,CLR,0.00,VWS V14.01,2013-04-02 07:23:00,
2013-04-02 02:28:00,18.9,9.4,30.20,WNW,291,0.0,0.0,66,0.00,,CLR,0.00,VWS V14.01,2013-04-02 07:28:00,
2013-04-02 02:30:00,21.0,9.7,30.19,WNW,291,4.0,9.0,61,0.00,,,0.00,VWS V15.00,2013-04-02 07:30:00,
2013-04-02 02:33:00,18.8,9.7,30.20,WNW,291,0.0,0.0,67,0.00,,CLR,0.00,VWS V14.01,2013-04-02 07:33:00,
2013-04-02 02:38:00,18.8,9.7,30.20,WNW,291,0.0,1.0,67,0.00,,CLR,0.00,VWS V14.01,2013-04-02 07:38:00,
2013-04-02 02:43:00,18.4,9.9,30.20,WNW,291,1.0,5.0,69,0.00,,CLR,0.00,VWS V14.01,2013-04-02 07:43:00,
2013-04-02 02:45:00,20.3,9.7,30.19,WNW,291,0.0,6.0,63,0.00,,,0.00,VWS V15.00,2013-04-02 07:45:00,
2013-04-02 02:48:00,18.1,9.7,30.20,WNW,291,0.0,2.0,69,0.00,,CLR,0.00,VWS V14.01,2013-04-02 07:48:00,
2013-04-02 02:53:00,17.8,9.4,30.20,WNW,291,1.0,2.0,69,0.00,,CLR,0.00,VWS V14.01,2013-04-02 07:53:00,
2013-04-02 02:59:00,17.5,9.4,30.20,WNW,291,0.0,2.0,70,0.00,,CLR,0.00,VWS V14.01,2013-04-02 07:59:00,
2013-04-02 03:00:00,19.7,9.9,30.19,WNW,291,0.0,5.0,65,0.00,,,0.00,VWS V15.00,2013-04-02 08:00:00,
2013-04-02 03:04:00,17.0,9.2,30.20,WNW,291,2.0,5.0,71,0.00,,CLR,0.00,VWS V14.01,2013-04-02 08:04:00,
2013-04-02 03:09:00,16.7,9.6,30.20,WNW,289,1.0,7.0,73,0.00,,CLR,0.00,VWS V14.01,2013-04-02 08:09:00,
2013-04-02 03:14:00,16.7,9.6,30.20,WNW,288,2.0,7.0,73,0.00,,CLR,0.00,VWS V14.01,2013-04-02 08:14:00,
2013-04-02 03:15:00,19.1,10.0,30.20,WNW,291,0.0,0.0,67,0.00,,,0.00,VWS V15.00,2013-04-02 08:15:00,
2013-04-02 03:20:00,16.7,9.6,30.20,WNW,284,2.0,10.0,73,0.00,,CLR,0.00,VWS V14.01,2013-04-02 08:20:00,
2013-04-02 03:25:00,16.9,9.8,30.20,West,279,0.0,10.0,73,0.00,,CLR,0.00,VWS V14.01,2013-04-02 08:25:00,
2013-04-02 03:30:00,16.7,9.6,30.20,West,278,0.0,6.0,73,0.00,,CLR,0.00,VWS V14.01,2013-04-02 08:30:00,
2013-04-02 03:35:00,16.7,9.6,30.20,West,277,0.0,6.0,73,0.00,,CLR,0.00,VWS V14.01,2013-04-02 08:35:00,
2013-04-02 03:40:00,16.7,9.6,30.20,West,277,1.0,6.0,73,0.00,,CLR,0.00,VWS V14.01,2013-04-02 08:40:00,
2013-04-02 03:45:00,18.4,9.9,30.20,WNW,291,0.0,5.0,69,0.00,,,0.00,VWS V15.00,2013-04-02 08:45:00,
2013-04-02 03:46:00,16.5,9.4,30.20,West,277,0.0,3.0,73,0.00,,CLR,0.00,VWS V14.01,2013-04-02 08:46:00,
2013-04-02 03:51:00,16.4,9.6,30.20,West,277,5.0,5.0,74,0.00,,CLR,0.00,VWS V14.01,2013-04-02 08:51:00,
2013-04-02 03:56:00,16.4,9.6,30.20,West,277,1.0,6.0,74,0.00,,CLR,0.00,VWS V14.01,2013-04-02 08:56:00,
2013-04-02 04:00:00,17.5,9.4,30.20,WNW,291,1.0,2.0,70,0.00,,,0.00,VWS V15.00,2013-04-02 09:00:00,
2013-04-02 04:01:00,16.5,9.7,30.20,West,277,0.0,6.0,74,0.00,,CLR,0.00,VWS V14.01,2013-04-02 09:01:00,
2013-04-02 04:06:00,16.7,9.6,30.20,West,274,6.0,9.0,73,0.00,,CLR,0.00,VWS V14.01,2013-04-02 09:06:00,
2013-04-02 04:12:00,16.9,9.8,30.20,West,274,6.0,9.0,73,0.00,,CLR,0.00,VWS V14.01,2013-04-02 09:12:00,
2013-04-02 04:15:00,16.7,9.6,30.20,WNW,288,3.0,7.0,73,0.00,,,0.00,VWS V15.00,2013-04-02 09:15:00,
2013-04-02 04:17:00,16.9,9.8,30.20,West,274,5.0,7.0,73,0.00,,CLR,0.00,VWS V14.01,2013-04-02 09:17:00,
2013-04-02 04:22:00,16.9,9.8,30.20,West,273,0.0,8.0,73,0.00,,CLR,0.00,VWS V14.01,2013-04-02 09:22:00,
2013-04-02 04:28:00,16.9,9.8,30.20,West,273,2.0,8.0,73,0.00,,CLR,0.00,VWS V14.01,2013-04-02 09:28:00,
2013-04-02 04:30:00,16.9,9.8,30.20,West,278,6.0,10.0,73,0.00,,,0.00,VWS V15.00,2013-04-02 09:30:00,
2013-04-02 04:33:00,16.9,9.8,30.20,West,273,4.0,7.0,73,0.00,,CLR,0.00,VWS V14.01,2013-04-02 09:33:00,
2013-04-02 04:38:00,16.9,9.8,30.20,West,273,1.0,7.0,73,0.00,,CLR,0.00,VWS V14.01,2013-04-02 09:38:00,
2013-04-02 04:43:00,16.7,9.6,30.20,West,272,4.0,9.0,73,0.00,,CLR,0.00,VWS V14.01,2013-04-02 09:43:00,
2013-04-02 04:45:00,16.5,9.4,30.20,West,277,1.0,7.0,73,0.00,,,0.00,VWS V15.00,2013-04-02 09:45:00,
2013-04-02 04:48:00,16.5,9.4,30.20,West,272,6.0,6.0,73,0.00,,CLR,0.00,VWS V14.01,2013-04-02 09:48:00,
2013-04-02 04:53:00,16.2,9.4,30.20,West,272,6.0,7.0,74,0.00,,CLR,0.00,VWS V14.01,2013-04-02 09:53:00,
2013-04-02 04:58:00,15.9,9.1,30.20,West,272,0.0,7.0,74,0.00,,CLR,0.00,VWS V14.01,2013-04-02 09:58:00,
2013-04-02 05:00:00,16.5,9.7,30.20,West,277,1.0,9.0,74,0.00,,,0.00,VWS V15.00,2013-04-02 10:00:00,
2013-04-02 05:03:00,15.7,9.2,30.20,West,272,5.0,7.0,75,0.00,,CLR,0.00,VWS V14.01,2013-04-02 10:03:00,
2013-04-02 05:08:00,15.7,9.2,30.20,West,272,1.0,7.0,75,0.00,,CLR,0.00,VWS V14.01,2013-04-02 10:08:00,
2013-04-02 05:14:00,15.7,9.2,30.20,West,272,3.0,7.0,75,0.00,,CLR,0.00,VWS V14.01,2013-04-02 10:14:00,
2013-04-02 05:15:00,16.9,9.8,30.20,West,274,0.0,9.0,73,0.00,,,0.00,VWS V15.00,2013-04-02 10:15:00,
2013-04-02 05:19:00,15.7,9.5,30.21,West,272,6.0,7.0,76,0.00,,CLR,0.00,VWS V14.01,2013-04-02 10:19:00,
2013-04-02 05:24:00,15.6,9.4,30.21,West,272,7.0,9.0,76,0.00,,CLR,0.00,VWS V14.01,2013-04-02 10:24:00,
2013-04-02 05:29:00,15.6,9.4,30.20,West,272,1.0,9.0,76,0.00,,CLR,0.00,VWS V14.01,2013-04-02 10:29:00,
2013-04-02 05:30:00,16.9,9.8,30.20,West,273,0.0,8.0,73,0.00,,,0.00,VWS V15.00,2013-04-02 10:30:00,
2013-04-02 05:35:00,15.7,9.5,30.20,West,272,1.0,7.0,76,0.00,,CLR,0.00,VWS V14.01,2013-04-02 10:35:00,
2013-04-02 05:40:00,15.7,9.5,30.20,West,272,6.0,7.0,76,0.00,,CLR,0.00,VWS V14.01,2013-04-02 10:40:00,
2013-04-02 05:45:00,15.7,9.5,30.20,West,272,0.0,0.0,76,0.00,,CLR,0.00,VWS V14.01,2013-04-02 10:45:00,
2013-04-02 05:50:00,15.7,9.5,30.20,West,272,0.0,6.0,76,0.00,,CLR,0.00,VWS V14.01,2013-04-02 10:50:00,
2013-04-02 05:55:00,15.6,9.4,30.20,West,272,0.0,6.0,76,0.00,,CLR,0.00,VWS V14.01,2013-04-02 10:55:00,
2013-04-02 06:00:00,15.4,9.5,30.21,West,272,1.0,2.0,77,0.00,,CLR,0.00,VWS V14.01,2013-04-02 11:00:00,
2013-04-02 06:05:00,15.4,9.5,30.21,West,272,6.0,6.0,77,0.00,,CLR,0.00,VWS V14.01,2013-04-02 11:05:00,
2013-04-02 06:10:00,15.2,9.3,30.21,West,272,5.0,7.0,77,0.00,,CLR,0.00,VWS V14.01,2013-04-02 11:10:00,
2013-04-02 06:15:00,14.9,9.0,30.21,West,272,4.0,4.0,77,0.00,,CLR,0.00,VWS V14.01,2013-04-02 11:15:00,
2013-04-02 06:20:00,14.8,9.2,30.21,West,272,3.0,6.0,78,0.00,,CLR,0.00,VWS V14.01,2013-04-02 11:20:00,
2013-04-02 06:25:00,14.4,8.8,30.21,West,272,3.0,6.0,78,0.00,,CLR,0.00,VWS V14.01,2013-04-02 11:25:00,
2013-04-02 06:30:00,14.1,8.8,30.22,West,271,1.0,2.0,79,0.00,,CLR,0.00,VWS V14.01,2013-04-02 11:30:00,
2013-04-02 06:36:00,14.1,8.8,30.22,West,271,0.0,6.0,79,0.00,,CLR,0.00,VWS V14.01,2013-04-02 11:36:00,
2013-04-02 06:41:00,14.0,8.7,30.22,West,271,0.0,6.0,79,0.00,,CLR,0.00,VWS V14.01,2013-04-02 11:41:00,
2013-04-02 06:45:00,15.7,9.5,30.20,West,272,0.0,7.0,76,0.00,,,0.00,VWS V15.00,2013-04-02 11:45:00,
2013-04-02 06:46:00,14.1,9.1,30.23,West,271,0.0,0.0,80,0.00,,CLR,0.00,VWS V14.01,2013-04-02 11:46:00,
2013-04-02 06:51:00,14.1,9.1,30.23,West,271,0.0,0.0,80,0.00,,CLR,0.00,VWS V14.01,2013-04-02 11:51:00,
2013-04-02 06:56:00,14.1,9.1,30.23,West,271,0.0,0.0,80,0.00,,CLR,0.00,VWS V14.01,2013-04-02 11:56:00,
2013-04-02 07:00:00,15.4,9.5,30.21,West,272,2.0,6.0,77,0.00,,,0.00,VWS V15.00,2013-04-02 12:00:00,
2013-04-02 07:01:00,14.1,9.1,30.23,West,271,0.0,0.0,80,0.00,,CLR,0.00,VWS V14.01,2013-04-02 12:01:00,
2013-04-02 07:06:00,14.1,9.1,30.23,West,271,0.0,0.0,80,0.00,,CLR,0.00,VWS V14.01,2013-04-02 12:06:00,
2013-04-02 07:12:00,14.1,9.1,30.23,West,271,0.0,0.0,80,0.00,,CLR,0.00,VWS V14.01,2013-04-02 12:12:00,
2013-04-02 07:15:00,14.9,9.0,30.21,West,272,1.0,7.0,77,0.00,,,0.00,VWS V15.00,2013-04-02 12:15:00,
2013-04-02 07:17:00,14.0,9.0,30.24,West,271,0.0,0.0,80,0.00,,CLR,0.00,VWS V14.01,2013-04-02 12:17:00,
2013-04-02 07:22:00,14.0,9.0,30.24,West,271,0.0,0.0,80,0.00,,CLR,0.00,VWS V14.01,2013-04-02 12:22:00,
2013-04-02 07:27:00,14.1,9.4,30.24,West,271,0.0,0.0,81,0.00,,CLR,0.00,VWS V14.01,2013-04-02 12:27:00,
2013-04-02 07:30:00,14.1,8.8,30.22,West,271,1.0,6.0,79,0.00,,,0.00,VWS V15.00,2013-04-02 12:30:00,
2013-04-02 07:32:00,14.3,9.6,30.24,West,271,0.0,3.0,81,0.00,,CLR,0.00,VWS V14.01,2013-04-02 12:32:00,
2013-04-02 07:37:00,14.6,10.1,30.24,West,271,3.0,7.0,82,0.00,,CLR,0.00,VWS V14.01,2013-04-02 12:37:00,
2013-04-02 07:42:00,15.1,10.6,30.24,West,271,1.0,7.0,82,0.00,,CLR,0.00,VWS V14.01,2013-04-02 12:42:00,
2013-04-02 07:45:00,14.0,8.7,30.23,West,271,0.0,6.0,79,0.00,,,0.00,VWS V15.00,2013-04-02 12:45:00,
2013-04-02 07:47:00,15.6,10.5,30.25,West,271,1.0,3.0,80,0.00,,CLR,0.00,VWS V14.01,2013-04-02 12:47:00,
2013-04-02 07:53:00,16.1,10.8,30.25,West,271,4.0,4.0,79,0.00,,CLR,0.00,VWS V14.01,2013-04-02 12:53:00,
2013-04-02 07:58:00,16.5,10.9,30.25,West,271,0.0,4.0,78,0.00,,CLR,0.00,VWS V14.01,2013-04-02 12:58:00,
2013-04-02 08:00:00,14.1,9.1,30.23,West,271,0.0,0.0,80,0.00,,,0.00,VWS V15.00,2013-04-02 13:00:00,
2013-04-02 08:03:00,16.7,10.8,30.26,West,271,0.0,0.0,77,0.00,,CLR,0.00,VWS V14.01,2013-04-02 13:03:00,
2013-04-02 08:08:00,17.0,11.1,30.26,West,271,0.0,4.0,77,0.00,,CLR,0.00,VWS V14.01,2013-04-02 13:08:00,
2013-04-02 08:13:00,17.3,11.1,30.26,West,271,3.0,4.0,76,0.00,,SCT100,0.00,VWS V14.01,2013-04-02 13:13:00,
2013-04-02 08:15:00,14.0,9.0,30.24,West,271,0.0,0.0,80,0.00,,,0.00,VWS V15.00,2013-04-02 13:15:00,
2013-04-02 08:18:00,17.7,11.4,30.26,West,271,5.0,5.0,76,0.00,,SCT100,0.00,VWS V14.01,2013-04-02 13:18:00,
2013-04-02 08:23:00,18.1,11.5,30.26,West,271,0.0,5.0,75,0.00,,SCT100,0.00,VWS V14.01,2013-04-02 13:23:00,
2013-04-02 08:28:00,18.6,12.0,30.26,West,272,2.0,6.0,75,0.00,,SCT100,0.00,VWS V14.01,2013-04-02 13:28:00,
2013-04-02 08:30:00,14.1,9.4,30.24,West,271,0.0,0.0,81,0.00,,,0.00,VWS V15.00,2013-04-02 13:30:00,
2013-04-02 08:33:00,18.9,12.0,30.26,West,272,3.0,4.0,74,0.00,,OVC090,0.00,VWS V14.01,2013-04-02 13:33:00,
2013-04-02 08:38:00,19.2,12.0,30.26,West,272,1.0,5.0,73,0.00,,OVC090,0.00,VWS V14.01,2013-04-02 13:38:00,
2013-04-02 08:44:00,19.9,12.3,30.26,West,272,0.0,5.0,72,0.00,,OVC090,0.00,VWS V14.01,2013-04-02 13:44:00,
2013-04-02 08:45:00,15.4,10.6,30.25,West,271,1.0,7.0,81,0.00,,,0.00,VWS V15.00,2013-04-02 13:45:00,
2013-04-02 08:49:00,20.3,12.7,30.27,West,272,5.0,6.0,72,0.00,,OVC090,0.00,VWS V14.01,2013-04-02 13:49:00,
2013-04-02 08:54:00,20.8,12.9,30.27,West,279,4.0,7.0,71,0.00,,OVC090,0.00,VWS V14.01,2013-04-02 13:54:00,
2013-04-02 08:59:00,21.1,12.9,30.27,WNW,293,0.0,7.0,70,0.00,,OVC090,0.00,VWS V14.01,2013-04-02 13:59:00,
2013-04-02 09:00:00,16.5,10.9,30.26,West,271,0.0,4.0,78,0.00,,,0.00,VWS V15.00,2013-04-02 14:00:00,
2013-04-02 09:04:00,21.8,12.9,30.27,WNW,293,6.0,9.0,68,0.00,,OVC100,0.00,VWS V14.01,2013-04-02 14:04:00,
2013-04-02 09:09:00,22.2,13.3,30.27,NW,325,1.0,9.0,68,0.00,,OVC100,0.00,VWS V14.01,2013-04-02 14:09:00,
2013-04-02 09:14:00,22.5,13.6,30.27,NW,310,4.0,9.0,68,0.00,,OVC100,0.00,VWS V14.01,2013-04-02 14:14:00,
2013-04-02 09:15:00,17.5,11.2,30.26,West,271,5.0,5.0,76,0.00,,,0.00,VWS V15.00,2013-04-02 14:15:00,
2013-04-02 09:19:00,22.7,13.4,30.27,NW,306,7.0,7.0,67,0.00,,OVC100,0.00,VWS V14.01,2013-04-02 14:19:00,
2013-04-02 09:25:00,23.0,13.4,30.27,NW,305,4.0,9.0,66,0.00,,OVC100,0.00,VWS V14.01,2013-04-02 14:25:00,
2013-04-02 09:30:00,23.5,13.8,30.27,NW,305,3.0,9.0,66,0.00,,OVC100,0.00,VWS V14.01,2013-04-02 14:30:00,
2013-04-02 09:35:00,23.8,13.8,30.27,NW,306,5.0,7.0,65,0.00,,OVC110,0.00,VWS V14.01,2013-04-02 14:35:00,
2013-04-02 09:40:00,24.2,13.8,30.27,NW,306,0.0,9.0,64,0.00,,OVC110,0.00,VWS V14.01,2013-04-02 14:40:00,
2013-04-02 09:45:00,24.7,14.3,30.27,NW,309,0.0,9.0,64,0.00,,OVC110,0.00,VWS V14.01,2013-04-02 14:45:00,
2013-04-02 09:50:00,25.0,14.2,30.27,NW,305,3.0,5.0,63,0.00,,OVC110,0.00,VWS V14.01,2013-04-02 14:50:00,
2013-04-02 09:55:00,25.3,14.1,30.27,NW,305,2.0,6.0,62,0.00,,OVC110,0.00,VWS V14.01,2013-04-02 14:55:00,
2013-04-02 10:00:00,25.7,14.5,30.27,NW,305,0.0,2.0,62,0.00,,OVC110,0.00,VWS V14.01,2013-04-02 15:00:00,
2013-04-02 10:05:00,26.3,14.3,30.27,NW,305,0.0,4.0,60,0.00,,OVC110,0.00,VWS V14.01,2013-04-02 15:05:00,
2013-04-02 10:11:00,26.9,14.5,30.27,NW,305,1.0,7.0,59,0.00,,OVC110,0.00,VWS V14.01,2013-04-02 15:11:00,
2013-04-02 10:15:00,22.5,13.2,30.27,NW,310,3.0,9.0,67,0.00,,,0.00,VWS V15.00,2013-04-02 15:15:00,
2013-04-02 10:16:00,27.2,14.8,30.27,NW,304,4.0,5.0,59,0.00,,OVC110,0.00,VWS V14.01,2013-04-02 15:16:00,
2013-04-02 10:21:00,27.3,14.9,30.27,WNW,292,0.0,10.0,59,0.00,,OVC110,0.00,VWS V14.01,2013-04-02 15:21:00,
2013-04-02 10:27:00,28.2,14.9,30.27,WNW,291,0.0,10.0,57,0.00,,OVC110,0.00,VWS V14.01,2013-04-02 15:27:00,
2013-04-02 10:30:00,23.5,13.8,30.27,NW,305,3.0,9.0,66,0.00,,,0.00,VWS V15.00,2013-04-02 15:30:00,
2013-04-02 10:32:00,28.4,14.7,30.27,WNW,285,3.0,9.0,56,0.00,,BKN110,0.00,VWS V14.01,2013-04-02 15:32:00,
2013-04-02 10:37:00,28.5,15.2,30.27,WNW,295,0.0,10.0,57,0.00,,BKN110,0.00,VWS V14.01,2013-04-02 15:37:00,
2013-04-02 10:42:00,28.8,15.5,30.27,NW,322,7.0,11.0,57,0.00,,BKN110,0.00,VWS V14.01,2013-04-02 15:42:00,
2013-04-02 10:45:00,24.7,14.3,30.27,NW,309,0.0,9.0,64,0.00,,,0.00,VWS V15.00,2013-04-02 15:45:00,
2013-04-02 10:47:00,29.0,14.4,30.27,NW,317,4.0,8.0,54,0.00,,BKN110,0.00,VWS V14.01,2013-04-02 15:47:00,
2013-04-02 10:53:00,29.3,14.7,30.27,WNW,294,5.0,11.0,54,0.00,,BKN110,0.00,VWS V14.01,2013-04-02 15:53:00,
2013-04-02 10:58:00,29.8,15.2,30.27,WNW,293,6.0,11.0,54,0.00,,BKN110,0.00,VWS V14.01,2013-04-02 15:58:00,
2013-04-02 11:00:00,25.7,14.9,30.27,NW,305,2.0,6.0,63,0.00,,,0.00,VWS V15.00,2013-04-02 16:00:00,
2013-04-02 11:05:00,29.7,14.7,30.27,WNW,291,3.0,9.0,53,0.00,,BKN110,0.00,VWS V14.01,2013-04-02 16:05:00,
2013-04-02 11:10:00,29.7,14.2,30.27,WSW,255,10.0,10.0,52,0.00,,BKN110,0.00,VWS V14.01,2013-04-02 16:10:00,
2013-04-02 11:15:00,29.7,13.8,30.28,WNW,291,6.0,11.0,51,0.00,,BKN110,0.00,VWS V14.01,2013-04-02 16:15:00,
2013-04-02 11:24:00,30.0,14.5,30.28,NW,316,5.0,11.0,52,0.00,,BKN110,0.00,VWS V14.01,2013-04-02 16:24:00,
2013-04-02 11:29:00,30.3,13.4,30.27,NW,307,0.0,11.0,49,0.00,,BKN110,0.00,VWS V14.01,2013-04-02 16:29:00,
2013-04-02 11:30:00,28.5,14.8,30.27,WNW,292,1.0,10.0,56,0.00,,,0.00,VWS V15.00,2013-04-02 16:30:00,
2013-04-02 11:34:00,30.9,15.8,30.27,West,270,13.0,13.0,53,0.00,,OVC090,0.00,VWS V14.01,2013-04-02 16:34:00,
2013-04-02 11:41:00,31.5,14.1,30.27,WNW,289,4.0,13.0,48,0.00,,OVC090,0.00,VWS V14.01,2013-04-02 16:41:00,
2013-04-02 11:45:00,28.8,14.7,30.27,NW,318,7.0,11.0,55,0.00,,,0.00,VWS V15.00,2013-04-02 16:45:00,
2013-04-02 11:46:00,31.9,12.5,30.27,NNW,329,11.0,13.0,44,0.00,,OVC090,0.00,VWS V14.01,2013-04-02 16:46:00,
2013-04-02 11:51:00,31.9,14.4,30.27,WNW,288,10.0,13.0,48,0.00,,OVC090,0.00,VWS V14.01,2013-04-02 16:51:00,
2013-04-02 11:56:00,31.6,12.7,30.27,NW,316,7.0,13.0,45,0.00,,OVC090,0.00,VWS V14.01,2013-04-02 16:56:00,
2013-04-02 12:00:00,29.7,14.2,30.27,WNW,293,0.0,11.0,52,0.00,,,0.00,VWS V15.00,2013-04-02 17:00:00,
2013-04-02 12:02:00,31.5,10.5,30.27,WNW,298,12.0,14.0,41,0.00,,BKN100,0.00,VWS V14.01,2013-04-02 17:02:00,
2013-04-02 12:07:00,31.9,11.4,30.27,NNW,334,6.0,16.0,42,0.00,,BKN100,0.00,VWS V14.01,2013-04-02 17:07:00,
2013-04-02 12:12:00,32.4,11.3,30.27,NW,304,16.0,16.0,41,0.00,,BKN100,0.00,VWS V14.01,2013-04-02 17:12:00,
2013-04-02 12:15:00,29.7,14.2,30.28,WNW,282,11.0,11.0,52,0.00,,,0.00,VWS V15.00,2013-04-02 17:15:00,
2013-04-02 12:17:00,32.8,11.7,30.27,NW,324,2.0,12.0,41,0.00,,BKN100,0.00,VWS V14.01,2013-04-02 17:17:00,
2013-04-02 12:24:00,32.8,11.1,30.27,WNW,295,8.0,15.0,40,0.00,,BKN100,0.00,VWS V14.01,2013-04-02 17:24:00,
2013-04-02 12:29:00,33.1,12.0,30.27,West,272,16.0,16.0,41,0.00,,BKN100,0.00,VWS V14.01,2013-04-02 17:29:00,
2013-04-02 12:30:00,30.4,14.4,30.27,NW,314,3.0,11.0,51,0.00,,,0.00,VWS V15.00,2013-04-02 17:30:00,
2013-04-02 12:34:00,33.8,12.1,30.27,NW,322,10.0,16.0,40,0.00,,SCT090,0.00,VWS V14.01,2013-04-02 17:34:00,
2013-04-02 12:39:00,33.5,12.3,30.27,WNW,291,20.0,20.0,41,0.00,,SCT090,0.00,VWS V14.01,2013-04-02 17:39:00,
2013-04-02 12:44:00,33.7,10.8,30.26,NW,310,4.0,20.0,38,0.00,,SCT090,0.00,VWS V14.01,2013-04-02 17:44:00,
2013-04-02 12:45:00,31.9,13.5,30.27,WNW,296,10.0,15.0,46,0.00,,,0.00,VWS V15.00,2013-04-02 17:45:00,
2013-04-02 12:50:00,33.8,11.5,30.26,WNW,289,9.0,15.0,39,0.00,,SCT090,0.00,VWS V14.01,2013-04-02 17:50:00,
2013-04-02 12:57:00,34.1,11.2,30.26,NW,322,6.0,15.0,38,0.00,,SCT090,0.00,VWS V14.01,2013-04-02 17:57:00,
2013-04-02 13:00:00,31.5,12.1,30.27,WNW,299,11.0,15.0,44,0.00,,,0.00,VWS V15.00,2013-04-02 18:00:00,
2013-04-02 13:02:00,34.9,11.9,30.26,WNW,298,11.0,16.0,38,0.00,,CLR,0.00,VWS V14.01,2013-04-02 18:02:00,
2013-04-02 13:08:00,34.6,11.6,30.26,WNW,294,4.0,18.0,38,0.00,,CLR,0.00,VWS V14.01,2013-04-02 18:08:00,
2013-04-02 13:13:00,34.6,11.0,30.26,NW,306,11.0,18.0,37,0.00,,CLR,0.00,VWS V14.01,2013-04-02 18:13:00,
2013-04-02 13:15:00,32.7,12.7,30.27,NW,307,12.0,16.0,43,0.00,,,0.00,VWS V15.00,2013-04-02 18:15:00,
2013-04-02 13:18:00,34.6,11.6,30.26,NNW,333,4.0,6.0,38,0.00,,CLR,0.00,VWS V14.01,2013-04-02 18:18:00,
2013-04-02 13:23:00,35.3,12.2,30.26,WNW,291,4.0,10.0,38,0.00,,CLR,0.00,VWS V14.01,2013-04-02 18:23:00,
2013-04-02 13:28:00,35.5,11.8,30.26,NW,305,9.0,16.0,37,0.00,,CLR,0.00,VWS V14.01,2013-04-02 18:28:00,
2013-04-02 13:30:00,33.2,10.9,30.27,WNW,291,7.0,16.0,39,0.00,,,0.00,VWS V15.00,2013-04-02 18:30:00,
2013-04-02 13:34:00,35.3,12.2,30.26,West,275,1.0,18.0,38,0.00,,CLR,0.00,VWS V14.01,2013-04-02 18:34:00,
2013-04-02 13:39:00,35.9,12.2,30.26,WNW,292,13.0,18.0,37,0.00,,CLR,0.00,VWS V14.01,2013-04-02 18:39:00,
2013-04-02 13:44:00,35.9,11.6,30.26,WNW,282,12.0,18.0,36,0.00,,CLR,0.00,VWS V14.01,2013-04-02 18:44:00,
2013-04-02 13:45:00,33.7,13.1,30.26,NW,310,0.0,20.0,42,0.00,,,0.00,VWS V15.00,2013-04-02 18:45:00,
2013-04-02 13:49:00,35.9,12.8,30.26,NNW,327,2.0,10.0,38,0.00,,CLR,0.00,VWS V14.01,2013-04-02 18:49:00,
2013-04-02 13:55:00,36.0,14.6,30.26,NNW,337,6.0,13.0,41,0.00,,CLR,0.00,VWS V14.01,2013-04-02 18:55:00,
2013-04-02 14:00:00,36.3,11.9,30.26,NW,325,3.0,13.0,36,0.00,,CLR,0.00,VWS V14.01,2013-04-02 19:00:00,
2013-04-02 14:07:00,37.2,12.7,30.26,WNW,297,17.0,17.0,36,0.00,,CLR,0.00,VWS V14.01,2013-04-02 19:07:00,
2013-04-02 14:12:00,36.8,13.0,30.26,NW,318,4.0,17.0,37,0.00,,CLR,0.00,VWS V14.01,2013-04-02 19:12:00,
2013-04-02 14:15:00,34.6,11.6,30.26,North,357,4.0,18.0,38,0.00,,,0.00,VWS V15.00,2013-04-02 19:15:00,
2013-04-02 14:17:00,36.9,12.4,30.26,WNW,291,16.0,16.0,36,0.00,,CLR,0.00,VWS V14.01,2013-04-02 19:17:00,
2013-04-02 14:24:00,36.5,12.1,30.26,WNW,291,12.0,22.0,36,0.00,,CLR,0.00,VWS V14.01,2013-04-02 19:24:00,
2013-04-02 14:29:00,36.5,10.8,30.26,West,270,7.0,22.0,34,0.00,,CLR,0.00,VWS V14.01,2013-04-02 19:29:00,
2013-04-02 14:30:00,35.5,11.8,30.26,West,276,6.0,16.0,37,0.00,,,0.00,VWS V15.00,2013-04-02 19:30:00,
2013-04-02 14:34:00,36.8,11.7,30.26,WNW,292,4.0,14.0,35,0.00,,CLR,0.00,VWS V14.01,2013-04-02 19:34:00,
2013-04-02 14:39:00,37.3,13.4,30.26,West,259,2.0,14.0,37,0.00,,CLR,0.00,VWS V14.01,2013-04-02 19:39:00,
2013-04-02 14:45:00,37.2,11.4,30.26,WSW,256,9.0,14.0,34,0.00,,SCT047,0.00,VWS V14.01,2013-04-02 19:45:00,
2013-04-02 14:50:00,37.5,11.7,30.26,WNW,293,18.0,18.0,34,0.00,,SCT047,0.00,VWS V14.01,2013-04-02 19:50:00,
2013-04-02 14:55:00,37.9,14.0,30.26,WNW,301,0.0,18.0,37,0.00,,SCT047,0.00,VWS V14.01,2013-04-02 19:55:00,
2013-04-02 15:00:00,37.6,13.7,30.26,WNW,296,9.0,14.0,37,0.00,,SCT047,0.00,VWS V14.01,2013-04-02 20:00:00,
2013-04-02 15:06:00,38.0,12.8,30.26,NW,314,7.0,14.0,35,0.00,,SCT050,0.00,VWS V14.01,2013-04-02 20:06:00,
2013-04-02 15:11:00,38.0,12.1,30.26,WNW,302,1.0,14.0,34,0.00,,SCT050,0.00,VWS V14.01,2013-04-02 20:11:00,
2013-04-02 15:15:00,36.8,12.4,30.26,WNW,294,10.0,17.0,36,0.00,,,0.00,VWS V15.00,2013-04-02 20:15:00,
2013-04-02 15:17:00,37.9,12.7,30.26,WNW,298,6.0,12.0,35,0.00,,SCT050,0.00,VWS V14.01,2013-04-02 20:17:00,
2013-04-02 15:22:00,37.8,13.9,30.26,WNW,296,3.0,12.0,37,0.00,,SCT050,0.00,VWS V14.01,2013-04-02 20:22:00,
2013-04-02 15:28:00,38.0,13.4,30.26,NW,314,11.0,15.0,36,0.00,,SCT050,0.00,VWS V14.01,2013-04-02 20:28:00,
2013-04-02 15:30:00,36.3,10.6,30.26,West,270,0.0,22.0,34,0.00,,,0.00,VWS V15.00,2013-04-02 20:30:00,
2013-04-02 15:33:00,38.3,16.1,30.26,WNW,292,9.0,14.0,40,0.00,,SCT050,0.00,VWS V14.01,2013-04-02 20:33:00,
2013-04-02 15:38:00,37.5,14.2,30.26,WNW,295,9.0,17.0,38,0.00,,SCT050,0.00,VWS V14.01,2013-04-02 20:38:00,
2013-04-02 15:43:00,37.6,11.8,30.26,WNW,291,3.0,17.0,34,0.00,,SCT050,0.00,VWS V14.01,2013-04-02 20:43:00,
2013-04-02 15:45:00,37.2,11.4,30.26,WSW,247,5.0,14.0,34,0.00,,,0.00,VWS V15.00,2013-04-02 20:45:00,
2013-04-02 15:48:00,38.3,12.4,30.26,WNW,298,6.0,9.0,34,0.00,,SCT050,0.00,VWS V14.01,2013-04-02 20:48:00,
2013-04-02 15:53:00,38.0,12.1,30.26,NW,326,10.0,15.0,34,0.00,,SCT050,0.00,VWS V14.01,2013-04-02 20:53:00,
2013-04-02 15:59:00,38.2,14.8,30.26,NW,312,10.0,16.0,38,0.00,,SCT050,0.00,VWS V14.01,2013-04-02 20:59:00,
2013-04-02 16:00:00,37.6,13.7,30.26,NW,306,12.0,18.0,37,0.00,,,0.00,VWS V15.00,2013-04-02 21:00:00,
2013-04-02 16:04:00,38.6,14.6,30.26,WNW,298,4.0,17.0,37,0.00,,BKN050,0.00,VWS V14.01,2013-04-02 21:04:00,
2013-04-02 16:09:00,38.5,12.6,30.26,West,278,12.0,17.0,34,0.00,,BKN050,0.00,VWS V14.01,2013-04-02 21:09:00,
2013-04-02 16:14:00,38.2,13.6,30.26,West,276,3.0,17.0,36,0.00,,BKN050,0.00,VWS V14.01,2013-04-02 21:14:00,
2013-04-02 16:15:00,38.2,13.0,30.26,WNW,286,9.0,14.0,35,0.00,,,0.00,VWS V15.00,2013-04-02 21:15:00,
2013-04-02 16:20:00,38.5,13.9,30.26,NNW,332,3.0,14.0,36,0.00,,BKN050,0.00,VWS V14.01,2013-04-02 21:20:00,
2013-04-02 16:25:00,38.0,13.4,30.26,WNW,282,5.0,15.0,36,0.00,,BKN050,0.00,VWS V14.01,2013-04-02 21:25:00,
2013-04-02 16:30:00,37.2,12.1,30.26,WNW,303,5.0,14.0,35,0.00,,BKN050,0.00,VWS V14.01,2013-04-02 21:30:00,
2013-04-02 16:37:00,36.9,13.1,30.26,NNW,329,11.0,16.0,37,0.00,,BKN050,0.00,VWS V14.01,2013-04-02 21:37:00,
2013-04-02 16:44:00,36.9,13.1,30.26,NW,316,11.0,16.0,37,0.00,,OVC050,0.00,VWS V14.01,2013-04-02 21:44:00,
2013-04-02 16:45:00,37.9,14.0,30.26,WNW,291,5.0,17.0,37,0.00,,,0.00,VWS V15.00,2013-04-02 21:45:00,
2013-04-02 16:49:00,36.9,13.1,30.26,WNW,296,7.0,14.0,37,0.00,,OVC050,0.00,VWS V14.01,2013-04-02 21:49:00,
2013-04-02 16:54:00,37.6,13.1,30.26,NW,321,8.0,14.0,36,0.00,,OVC050,0.00,VWS V14.01,2013-04-02 21:54:00,
2013-04-02 17:00:00,37.6,13.1,30.26,WNW,301,3.0,16.0,36,0.00,,OVC050,0.00,VWS V14.01,2013-04-02 22:00:00,
2013-04-02 17:05:00,37.3,12.8,30.26,NW,322,5.0,13.0,36,0.00,,SCT050,0.00,VWS V14.01,2013-04-02 22:05:00,
2013-04-02 17:10:00,37.9,14.6,30.26,NW,309,13.0,18.0,38,0.00,,SCT050,0.00,VWS V14.01,2013-04-02 22:10:00,
2013-04-02 17:15:00,37.3,12.8,30.26,WNW,293,4.0,4.0,36,0.00,,SCT050,0.00,VWS V14.01,2013-04-02 22:15:00,
2013-04-02 17:20:00,37.3,12.2,30.26,WNW,298,7.0,16.0,35,0.00,,SCT050,0.00,VWS V14.01,2013-04-02 22:20:00,
2013-04-02 17:26:00,37.6,12.4,30.26,NW,312,2.0,16.0,35,0.00,,SCT050,0.00,VWS V14.01,2013-04-02 22:26:00,
2013-04-02 17:30:00,37.3,14.0,30.26,WNW,284,14.0,15.0,38,0.00,,,0.00,VWS V15.00,2013-04-02 22:30:00,
2013-04-02 17:32:00,37.8,14.5,30.26,WNW,300,8.0,13.0,38,0.00,,SCT050,0.00,VWS V14.01,2013-04-02 22:32:00,
2013-04-02 17:38:00,37.6,11.8,30.26,WNW,291,6.0,15.0,34,0.00,,SCT050,0.00,VWS V14.01,2013-04-02 22:38:00,
2013-04-02 17:45:00,37.5,14.8,30.26,NW,312,0.0,15.0,39,0.00,,CLR,0.00,VWS V14.01,2013-04-02 22:45:00,
2013-04-02 17:50:00,37.3,12.8,30.26,WNW,297,0.0,18.0,36,0.00,,CLR,0.00,VWS V14.01,2013-04-02 22:50:00,
2013-04-02 17:55:00,37.5,14.2,30.26,WNW,293,2.0,18.0,38,0.00,,CLR,0.00,VWS V14.01,2013-04-02 22:55:00,
2013-04-02 18:00:00,37.3,11.5,30.26,NW,306,4.0,18.0,34,0.00,,CLR,0.00,VWS V14.01,2013-04-02 23:00:00,
2013-04-02 18:05:00,36.9,12.4,30.26,WNW,293,9.0,14.0,36,0.00,,SCT065,0.00,VWS V14.01,2013-04-02 23:05:00,
2013-04-02 18:11:00,36.9,13.1,30.26,WNW,302,13.0,14.0,37,0.00,,SCT065,0.00,VWS V14.01,2013-04-02 23:11:00,
2013-04-02 18:15:00,37.3,12.8,30.26,WNW,293,4.0,18.0,36,0.00,,,0.00,VWS V15.00,2013-04-02 23:15:00,
2013-04-02 18:16:00,36.8,12.4,30.27,NW,304,1.0,3.0,36,0.00,,SCT065,0.00,VWS V14.01,2013-04-02 23:16:00,
2013-04-02 18:21:00,36.6,11.6,30.27,WNW,292,10.0,14.0,35,0.00,,SCT065,0.00,VWS V14.01,2013-04-02 23:21:00,
2013-04-02 18:27:00,36.2,14.8,30.27,WNW,303,3.0,14.0,41,0.00,,SCT065,0.00,VWS V14.01,2013-04-02 23:27:00,
2013-04-02 18:30:00,37.3,12.2,30.26,NW,326,6.0,16.0,35,0.00,,,0.00,VWS V15.00,2013-04-02 23:30:00,
2013-04-02 18:32:00,35.8,13.3,30.27,WNW,293,5.0,7.0,39,0.00,,SCT065,0.00,VWS V14.01,2013-04-02 23:32:00,
2013-04-02 18:38:00,35.3,14.0,30.27,NNW,334,5.0,12.0,41,0.00,,SCT065,0.00,VWS V14.01,2013-04-02 23:38:00,
2013-04-02 18:43:00,34.7,15.0,30.27,NW,307,10.0,12.0,44,0.00,,CLR,0.00,VWS V14.01,2013-04-02 23:43:00,
2013-04-02 18:45:00,37.5,14.8,30.26,NW,314,4.0,15.0,39,0.00,,,0.00,VWS V15.00,2013-04-02 23:45:00,
2013-04-02 18:48:00,34.4,11.4,30.28,NW,317,3.0,7.0,38,0.00,,CLR,0.00,VWS V14.01,2013-04-02 23:48:00,
2013-04-02 18:54:00,34.1,12.9,30.28,WNW,288,3.0,12.0,41,0.00,,CLR,0.00,VWS V14.01,2013-04-02 23:54:00,
2013-04-02 18:59:00,33.8,12.1,30.28,WNW,292,12.0,12.0,40,0.00,,CLR,0.00,VWS V14.01,2013-04-02 23:59:00,
2013-04-02 19:00:00,37.3,11.5,30.26,NW,306,4.0,18.0,34,0.00,,,0.00,VWS V15.00,2013-04-03 00:00:00,
2013-04-02 19:04:00,33.7,12.0,30.27,WNW,296,6.0,12.0,40,0.00,,CLR,0.00,VWS V14.01,2013-04-03 00:04:00,
2013-04-02 19:09:00,33.5,13.9,30.27,WNW,295,8.0,12.0,44,0.00,,CLR,0.00,VWS V14.01,2013-04-03 00:09:00,
2013-04-02 19:14:00,33.1,13.1,30.27,NW,309,11.0,12.0,43,0.00,,CLR,0.00,VWS V14.01,2013-04-03 00:14:00,
2013-04-02 19:15:00,36.8,13.6,30.27,NW,304,3.0,14.0,38,0.00,,,0.00,VWS V15.00,2013-04-03 00:15:00,
2013-04-02 19:20:00,32.9,14.9,30.27,NW,306,4.0,9.0,47,0.00,,CLR,0.00,VWS V14.01,2013-04-03 00:20:00,
2013-04-02 19:25:00,32.7,14.2,30.27,NW,304,0.0,9.0,46,0.00,,CLR,0.00,VWS V14.01,2013-04-03 00:25:00,
2013-04-02 19:30:00,32.2,13.3,30.28,WNW,293,2.0,6.0,45,0.00,,CLR,0.00,VWS V14.01,2013-04-03 00:30:00,
2013-04-02 19:35:00,32.1,13.2,30.28,NW,306,3.0,10.0,45,0.00,,CLR,0.00,VWS V14.01,2013-04-03 00:35:00,
2013-04-02 19:41:00,31.9,12.5,30.28,WNW,293,4.0,10.0,44,0.00,,CLR,0.00,VWS V14.01,2013-04-03 00:41:00,
2013-04-02 19:45:00,34.6,13.3,30.28,NW,312,5.0,14.0,41,0.00,,,0.00,VWS V15.00,2013-04-03 00:45:00,
2013-04-02 19:47:00,31.5,12.1,30.27,WNW,291,1.0,11.0,44,0.00,,CLR,0.00,VWS V14.01,2013-04-03 00:47:00,
2013-04-02 19:52:00,31.3,11.9,30.27,WNW,284,0.0,11.0,44,0.00,,CLR,0.00,VWS V14.01,2013-04-03 00:52:00,
2013-04-02 19:58:00,31.2,12.8,30.27,West,274,3.0,11.0,46,0.00,,CLR,0.00,VWS V14.01,2013-04-03 00:58:00,
2013-04-02 20:00:00,33.8,12.1,30.27,WNW,295,4.0,12.0,40,0.00,,,0.00,VWS V15.00,2013-04-03 01:00:00,
2013-04-02 20:03:00,30.9,13.5,30.27,West,272,1.0,7.0,48,0.00,,CLR,0.00,VWS V14.01,2013-04-03 01:03:00,
2013-04-02 20:08:00,30.6,13.7,30.27,West,275,1.0,11.0,49,0.00,,CLR,0.00,VWS V14.01,2013-04-03 01:08:00,
2013-04-02 20:14:00,30.3,13.0,30.27,West,277,1.0,11.0,48,0.00,,CLR,0.00,VWS V14.01,2013-04-03 01:14:00,
2013-04-02 20:15:00,33.1,13.1,30.27,NW,318,6.0,12.0,43,0.00,,,0.00,VWS V15.00,2013-04-03 01:15:00,
2013-04-02 20:19:00,30.0,13.2,30.28,West,276,2.0,6.0,49,0.00,,CLR,0.00,VWS V14.01,2013-04-03 01:19:00,
2013-04-02 20:24:00,29.7,12.9,30.28,West,275,4.0,6.0,49,0.00,,CLR,0.00,VWS V14.01,2013-04-03 01:24:00,
2013-04-02 20:30:00,29.3,13.0,30.28,West,275,0.0,6.0,50,0.00,,CLR,0.00,VWS V14.01,2013-04-03 01:30:00,
2013-04-02 20:35:00,29.0,13.6,30.28,West,275,0.0,0.0,52,0.00,,CLR,0.00,VWS V14.01,2013-04-03 01:35:00,
2013-04-02 20:40:00,28.7,12.9,30.28,West,274,0.0,0.0,51,0.00,,CLR,0.00,VWS V14.01,2013-04-03 01:40:00,
2013-04-02 20:45:00,28.5,13.1,30.28,West,274,0.0,0.0,52,0.00,,CLR,0.00,VWS V14.01,2013-04-03 01:45:00,
2013-04-02 20:50:00,28.4,13.5,30.28,West,274,1.0,7.0,53,0.00,,CLR,0.00,VWS V14.01,2013-04-03 01:50:00,
2013-04-02 20:55:00,28.2,13.3,30.28,West,273,1.0,7.0,53,0.00,,CLR,0.00,VWS V14.01,2013-04-03 01:55:00,
2013-04-02 21:00:00,28.1,13.6,30.29,West,273,1.0,3.0,54,0.00,,CLR,0.00,VWS V14.01,2013-04-03 02:00:00,
2013-04-02 21:06:00,27.9,13.4,30.29,West,272,2.0,7.0,54,0.00,,CLR,0.00,VWS V14.01,2013-04-03 02:06:00,
2013-04-02 21:12:00,27.9,13.4,30.29,West,272,2.0,7.0,54,0.00,,CLR,0.00,VWS V14.01,2013-04-03 02:12:00,
2013-04-02 21:15:00,30.1,13.3,30.28,West,277,3.0,11.0,49,0.00,,,0.00,VWS V15.00,2013-04-03 02:15:00,
2013-04-02 21:17:00,27.6,13.6,30.29,West,272,6.0,6.0,55,0.00,,CLR,0.00,VWS V14.01,2013-04-03 02:17:00,
2013-04-02 21:24:00,27.6,13.1,30.29,West,271,2.0,6.0,54,0.00,,CLR,0.00,VWS V14.01,2013-04-03 02:24:00,
2013-04-02 21:29:00,27.5,13.5,30.29,West,270,2.0,7.0,55,0.00,,CLR,0.00,VWS V14.01,2013-04-03 02:29:00,
2013-04-02 21:30:00,29.3,13.0,30.28,West,275,0.0,6.0,50,0.00,,,0.00,VWS V15.00,2013-04-03 02:30:00,
2013-04-02 21:35:00,27.3,13.3,30.29,West,270,6.0,6.0,55,0.00,,CLR,0.00,VWS V14.01,2013-04-03 02:35:00,
2013-04-02 21:40:00,26.9,14.1,30.29,West,270,0.0,6.0,58,0.00,,CLR,0.00,VWS V14.01,2013-04-03 02:40:00,
2013-04-02 21:45:00,26.6,13.8,30.30,West,270,1.0,1.0,58,0.00,,CLR,0.00,VWS V14.01,2013-04-03 02:45:00,
2013-04-02 21:50:00,26.4,13.6,30.30,West,270,0.0,2.0,58,0.00,,CLR,0.00,VWS V14.01,2013-04-03 02:50:00,
2013-04-02 21:56:00,26.3,13.9,30.30,West,270,0.0,2.0,59,0.00,,CLR,0.00,VWS V14.01,2013-04-03 02:56:00,
2013-04-02 22:00:00,28.1,13.6,30.29,West,273,0.0,7.0,54,0.00,,,0.00,VWS V15.00,2013-04-03 03:00:00,
2013-04-02 22:01:00,26.3,14.3,30.30,West,270,2.0,3.0,60,0.00,,CLR,0.00,VWS V14.01,2013-04-03 03:01:00,
2013-04-02 22:06:00,26.0,14.0,30.30,West,270,0.0,3.0,60,0.00,,CLR,0.00,VWS V14.01,2013-04-03 03:06:00,
2013-04-02 22:13:00,25.6,14.0,30.30,West,270,1.0,5.0,61,0.00,,CLR,0.00,VWS V14.01,2013-04-03 03:13:00,
2013-04-02 22:15:00,27.8,13.8,30.29,West,272,0.0,7.0,55,0.00,,,0.00,VWS V15.00,2013-04-03 03:15:00,
2013-04-02 22:20:00,25.4,13.8,30.30,West,270,1.0,3.0,61,0.00,,CLR,0.00,VWS V14.01,2013-04-03 03:20:00,
2013-04-02 22:25:00,25.4,13.5,30.30,West,270,0.0,3.0,60,0.00,,CLR,0.00,VWS V14.01,2013-04-03 03:25:00,
2013-04-02 22:30:00,25.4,13.5,30.30,West,270,0.0,3.0,60,0.00,,CLR,0.00,VWS V14.01,2013-04-03 03:30:00,
2013-04-02 22:35:00,25.3,13.8,30.30,West,270,0.0,0.0,61,0.00,,CLR,0.00,VWS V14.01,2013-04-03 03:35:00,
2013-04-02 22:41:00,25.3,13.4,30.30,West,270,0.0,0.0,60,0.00,,CLR,0.00,VWS V14.01,2013-04-03 03:41:00,
2013-04-02 22:45:00,26.6,13.8,30.30,West,270,1.0,6.0,58,0.00,,,0.00,VWS V15.00,2013-04-03 03:45:00,
2013-04-02 22:47:00,25.4,13.8,30.31,West,270,0.0,0.0,61,0.00,,CLR,0.00,VWS V14.01,2013-04-03 03:47:00,
2013-04-02 22:54:00,25.3,13.8,30.31,West,270,0.0,0.0,61,0.00,,CLR,0.00,VWS V14.01,2013-04-03 03:54:00,
2013-04-02 22:59:00,25.1,13.6,30.31,West,270,0.0,0.0,61,0.00,,CLR,0.00,VWS V14.01,2013-04-03 03:59:00,
2013-04-02 23:00:00,25.1,13.2,30.31,West,270,0.0,0.0,60,0.00,,CLR,0.00,VWS V14.01,2013-04-03 04:00:00,
2013-04-02 23:01:00,25.1,13.6,30.31,West,270,0.0,0.0,61,0.00,,CLR,0.00,VWS V14.01,2013-04-03 04:01:00,
2013-04-02 23:04:00,25.0,13.1,30.31,West,270,0.0,0.0,60,0.00,,CLR,0.00,VWS V14.01,2013-04-03 04:04:00,
2013-04-02 23:09:00,25.0,13.5,30.31,West,270,0.0,0.0,61,0.00,,CLR,0.00,VWS V14.01,2013-04-03 04:09:00,
2013-04-02 23:15:00,25.0,13.5,30.31,West,270,0.0,0.0,61,0.00,,CLR,0.00,VWS V14.01,2013-04-03 04:15:00,
2013-04-02 23:20:00,24.7,13.2,30.31,West,270,0.0,0.0,61,0.00,,CLR,0.00,VWS V14.01,2013-04-03 04:20:00,
2013-04-02 23:25:00,24.7,13.2,30.31,West,270,2.0,3.0,61,0.00,,CLR,0.00,VWS V14.01,2013-04-03 04:25:00,
2013-04-02 23:30:00,24.8,13.6,30.31,West,270,1.0,2.0,62,0.00,,CLR,0.00,VWS V14.01,2013-04-03 04:30:00,
2013-04-02 23:35:00,24.4,13.6,30.31,West,270,1.0,4.0,63,0.00,,CLR,0.00,VWS V14.01,2013-04-03 04:35:00,
2013-04-02 23:40:00,24.2,13.1,30.31,West,270,0.0,4.0,62,0.00,,CLR,0.00,VWS V14.01,2013-04-03 04:40:00,
2013-04-02 23:45:00,25.3,13.4,30.31,West,270,0.0,0.0,60,0.00,,,0.00,VWS V15.00,2013-04-03 04:45:00,
2013-04-02 23:47:00,24.2,13.8,30.30,West,270,0.0,0.0,64,0.00,,CLR,0.00,VWS V14.01,2013-04-03 04:47:00,
2013-04-02 23:52:00,24.1,13.3,30.30,West,270,2.0,3.0,63,0.00,,CLR,0.00,VWS V14.01,2013-04-03 04:52:00,
2013-04-02 23:57:00,23.9,12.8,30.30,West,270,3.0,3.0,62,0.00,,CLR,0.00,VWS V14.01,2013-04-03 04:57:00,